ARABSAT-7B (BADR-8)

Last updated on Tue Jul 01 2025 00:02:49 GMT+0000 (Coordinated Universal Time)

1 56757U 23075A 25181.07328593 .00000142 00000+0 00000+0 0 9996 2 56757 0.0755 31.4948 0003834 358.0176 301.2495 1.00271699 7596
UTC large
Height (km)
Speed (km/s)
/
Latitude / Longitude
Inclination (degrees)
Orbital Period (minutes)
Azimuth
Elevation
Range (km)
Doppler Factor

Next 0 passes for location: London (51.5072 / 0.1276)

Sorry there are no passes over London.